Weather reports worldwide

Advertisment
Genthin, Germany (10365): temperature & dewpoint: 09.09.2019 10:00:00 - 15.09.2019 10:00:00 (CEST)Genthin, Germany (10365): temperature 5cm & temperature -5cm: 09.09.2019 10:00:00 - 15.09.2019 10:00:00 (CEST)Genthin, Germany (10365): temperature -20cm & temperature -100cm: 09.09.2019 10:00:00 - 15.09.2019 10:00:00 (CEST)Genthin, Germany (10365): wind speed & gusts: 09.09.2019 10:00:00 - 15.09.2019 10:00:00 (CEST)Genthin, Germany (10365): wind direction: 09.09.2019 10:00:00 - 15.09.2019 10:00:00 (CEST)Genthin, Germany (10365): reduced air pressure: 09.09.2019 10:00:00 - 15.09.2019 10:00:00 (CEST)Genthin, Germany (10365): visibility: 09.09.2019 10:00:00 - 15.09.2019 10:00:00 (CEST)Genthin, Germany (10365): sunshine duration: 09.09.2019 10:00:00 - 15.09.2019 10:00:00 (CEST)Genthin, Germany (10365): precipitation: 09.09.2019 10:00:00 - 15.09.2019 10:00:00 (CEST)
Date & Time tt [°C] td [°C] tt 5cm [°C] tt -5cm [°C] tt -20cm [°C] tt -100cm [°C] ff [km/h] ff [kn] fx [km/h] fx [kn] dd ppp [hPa] vv [km] sd [min] rr [mm]
15.09.2019 10:00:00 17,0 7,7 19,0 13,8 14,4 17,3 10 5 21 12 W 1021,5 41 60 0,0
15.09.2019 09:00:00 14,7 7,3 16,0 11,7 14,5 17,3 6 4 15 8 SW 1022,1 49 60 0,0
15.09.2019 08:00:00 8,9 6,1 9,3 10,5 14,8 17,3 4 2 9 5 WSW 1022,6 35 22 0,0
15.09.2019 07:00:00 8,0 5,7 6,2 10,6 15,1 17,3 5 3 10 6 S 1023,0 44 0 0,0
15.09.2019 06:00:00 6,1 4,2 5,0 10,9 15,4 17,3 4 2 10 5 SSE 1023,7 43 0 0,0
15.09.2019 05:00:00 7,0 4,5 5,0 11,3 15,8 17,3 4 2 11 6 S 1024,3 43 0 0,0
15.09.2019 04:00:00 6,7 3,3 5,1 11,8 16,2 17,3 2 1 14 7 SSW 1025,6 46 0 0,0
15.09.2019 03:00:00 6,0 3,8 4,6 12,1 16,7 17,3 5 3 11 6 S 1026,2 40 0 0,0
15.09.2019 02:00:00 5,2 3,7 4,2 12,7 17,2 17,3 4 2 11 6 SSE 1026,9 45 0 0,0
15.09.2019 01:00:00 6,3 4,2 4,6 13,5 17,7 17,3 3 1 6 3 S 1027,8 58 0 0,0
15.09.2019 00:00:00 6,6 4,4 5,3 14,4 18,2 17,3 5 3 11 6 S 1028,7 45 0 0,0
14.09.2019 23:00:00 8,7 4,9 7,0 15,4 18,8 17,4 0 0 4 2 N 1029,5 55 0 0,0
14.09.2019 22:00:00 9,5 4,7 7,3 16,5 19,3 17,4 2 1 9 5 SSW 1029,8 56 0 0,0
14.09.2019 21:00:00 11,3 4,9 8,3 18,0 19,8 17,4 2 1 3 2 SE 1030,4 41 0 0,0
14.09.2019 20:00:00 13,8 6,0 10,9 20,0 20,1 17,4 0 0 5 3 N 1030,5 52 5 0,0
14.09.2019 19:00:00 17,7 4,2 15,7 22,2 20,1 17,4 2 1 9 5 SW 1030,3 55 47 0,0
14.09.2019 18:00:00 18,8 3,2 21,4 24,2 19,8 17,4 4 2 17 9 WNW 1030,5 52 60 0,0
14.09.2019 17:00:00 19,3 3,1 22,7 25,2 19,3 17,4 7 4 17 9 N 1031,8 62 60 0,0
14.09.2019 16:00:00 19,4 4,1 23,6 25,4 18,5 17,4 7 4 22 12 WNW 1032,0 69 60 0,0
14.09.2019 15:00:00 18,6 3,2 24,8 24,6 17,6 17,4 6 4 17 9 NNE 1033,2 42 60 0,0
14.09.2019 14:00:00 18,5 4,1 23,0 22,5 16,8 17,4 7 4 19 10 SSW 1033,4 46 48 0,0
14.09.2019 13:00:00 17,2 4,8 18,5 21,5 16,0 17,4 7 4 17 9 WNW 1034,3 63 44 0,0
14.09.2019 12:00:00 16,4 5,0 20,8 19,5 15,2 17,4 8 5 19 10 NW 1035,1 55 58 0,0
14.09.2019 11:00:00 16,2 6,3 20,8 16,3 14,6 17,4 4 2 12 6 NW 1035,4 39 60 0,0
14.09.2019 10:00:00 13,9 7,7 16,2 13,2 14,4 17,4 5 3 10 5 NW 1035,2 34 60 0,0
14.09.2019 09:00:00 11,0 7,2 12,3 11,0 14,6 17,4 6 3 9 5 WNW 1035,4 45 60 0,0
14.09.2019 08:00:00 6,5 4,6 7,2 10,0 15,0 17,4 3 1 7 4 WSW 1035,3 40 19 0,0
14.09.2019 07:00:00 4,4 3,8 2,4 10,2 15,4 17,4 3 1 4 2 SW 1035,1 28 0 0,0
14.09.2019 06:00:00 4,3 3,5 2,2 10,8 15,9 17,4 0 0 4 2 N 1035,0 22 0 0,0
14.09.2019 05:00:00 5,4 5,0 2,9 11,4 16,4 17,4 0 0 5 3 N 1034,8 30 0 0,0
14.09.2019 04:00:00 7,2 5,7 4,2 12,2 16,8 17,4 4 2 9 5 WSW 1034,6 37 0 0,0
14.09.2019 03:00:00 8,1 5,9 5,6 13,0 17,3 17,4 4 2 7 4 W 1034,7 48 0 0,0
14.09.2019 02:00:00 8,9 5,7 5,9 13,8 17,8 17,4 5 3 9 5 W 1034,7 47 0 0,0
14.09.2019 01:00:00 11,2 6,6 8,2 14,7 18,2 17,4 6 3 9 5 WNW 1034,4 49 0 0,0
14.09.2019 00:00:00 13,0 6,8 10,3 15,7 18,7 17,4 6 3 13 7 W 1034,0 55 0 0,0
13.09.2019 23:00:00 13,8 6,8 12,2 16,6 19,1 17,4 8 5 14 8 NW 1033,5 51 0 0,0
13.09.2019 22:00:00 15,1 7,1 13,7 17,7 19,5 17,4 9 5 14 8 NW 1033,0 55 0 0,0
13.09.2019 21:00:00 16,6 7,2 15,4 18,7 19,9 17,4 9 5 16 9 NW 1032,6 57 0 0,0
13.09.2019 20:00:00 17,9 7,4 16,8 20,0 20,1 17,4 12 6 22 12 NW 1031,6 60 0 0,0
13.09.2019 19:00:00 19,2 8,0 18,6 21,7 20,2 17,4 11 6 29 16 NW 1030,8 37 8 0,0
13.09.2019 18:00:00 20,7 8,3 21,8 23,1 19,9 17,4 18 10 34 18 NW 1030,4 66 56 0,0
13.09.2019 17:00:00 20,8 8,9 22,3 24,2 19,5 17,4 22 12 38 20 NNW 1030,1 46 49 0,0
13.09.2019 16:00:00 22,3 8,6 25,0 23,5 19,1 17,4 17 9 43 23 NW 1029,6 59 27 0,0
13.09.2019 15:00:00 21,7 11,9 25,1 23,1 18,5 17,4 23 12 45 24 NW 1029,4 66 28 0,0
13.09.2019 14:00:00 21,9 13,7 26,1 22,3 18,0 17,4 20 11 44 24 NW 1028,7 62 25 0,0
13.09.2019 13:00:00 22,2 14,6 23,9 21,2 17,5 17,4 24 13 42 23 W 1028,1 44 13 0,0
13.09.2019 12:00:00 22,0 14,8 24,8 19,5 17,1 17,4 20 11 39 21 W 1027,6 40 15 0,0
13.09.2019 11:00:00 20,0 15,1 20,5 17,9 16,9 17,4 15 8 28 15 W 1027,5 39 1 0,0
13.09.2019 10:00:00 19,2 14,2 19,3 17,2 16,8 17,4 14 8 26 14 W 1027,3 50 0 0,0
13.09.2019 09:00:00 18,8 13,5 18,7 16,4 16,7 17,4 12 6 21 11 SW 1026,9 42 0 0,0
13.09.2019 08:00:00 17,6 12,9 17,4 15,7 16,8 17,4 9 5 17 9 SW 1026,7 48 0 0,0
13.09.2019 07:00:00 16,8 12,7 16,3 15,5 16,9 17,4 9 5 19 10 SW 1026,5 46 0 0,0
13.09.2019 06:00:00 16,8 12,6 16,3 15,3 17,0 17,4 9 5 16 9 SW 1026,2 47 0 0,0
13.09.2019 05:00:00 15,3 12,5 14,5 15,1 17,2 17,4 6 3 10 6 SSW 1026,3 39 0 0,0
13.09.2019 04:00:00 14,9 12,3 13,4 15,1 17,5 17,4 7 4 11 6 SW 1026,6 34 0 0,0
13.09.2019 03:00:00 15,9 12,4 14,3 15,6 17,8 17,4 7 4 14 7 WSW 1026,5 40 0 0,0
13.09.2019 02:00:00 15,8 12,5 14,6 15,8 18,1 17,4 9 5 14 7 SW 1026,8 40 0 0,0
13.09.2019 01:00:00 15,2 12,4 12,8 16,3 18,4 17,4 6 4 9 5 SW 1026,9 37 0 0,0
13.09.2019 00:00:00 16,9 12,9 15,4 17,0 18,7 17,4 8 4 11 6 SW 1027,0 41 0 0,0
12.09.2019 23:00:00 17,1 13,2 15,0 17,6 19,1 17,4 5 3 11 6 SW 1027,2 45 0 0,0
12.09.2019 22:00:00 16,9 12,9 14,9 18,2 19,4 17,4 7 4 9 5 SW 1027,1 45 0 0,0
12.09.2019 21:00:00 18,5 12,9 16,3 19,3 19,7 17,4 7 4 8 5 SW 1026,9 52 0 0,0
12.09.2019 20:00:00 20,2 12,7 17,6 20,4 19,9 17,4 5 3 16 9 SW 1026,6 60 0 0,0
12.09.2019 19:00:00 22,4 12,0 21,3 21,8 19,9 17,4 11 6 30 16 WSW 1026,3 58 48 0,0
12.09.2019 18:00:00 23,3 11,6 24,0 23,1 19,7 17,4 13 7 24 13 W 1026,1 57 31 0,0
12.09.2019 17:00:00 22,6 12,7 23,0 23,7 19,3 17,4 13 7 24 13 WSW 1026,3 47 24 0,0
12.09.2019 16:00:00 22,5 12,6 23,8 24,3 18,6 17,4 16 8 29 15 W 1026,6 48 36 0,0
12.09.2019 15:00:00 22,1 13,2 24,3 23,1 18,0 17,4 11 6 30 16 W 1027,0 52 35 0,0
12.09.2019 14:00:00 21,1 14,2 23,2 21,9 17,4 17,4 12 7 26 14 SW 1027,3 58 19 0,0
12.09.2019 13:00:00 19,9 14,0 21,9 20,3 16,9 17,4 11 6 23 13 SW 1027,5 43 13 0,0
12.09.2019 12:00:00 18,6 14,0 19,6 18,7 16,6 17,4 13 7 22 12 SSW 1027,3 57 0 0,0
12.09.2019 11:00:00 18,2 13,7 20,2 17,4 16,4 17,4 10 5 19 10 SW 1027,0 49 2 0,0
12.09.2019 10:00:00 16,7 13,4 17,1 16,2 16,3 17,4 9 5 17 9 SW 1026,6 44 0 0,0
12.09.2019 09:00:00 16,4 13,5 16,8 15,7 16,3 17,4 6 4 19 10 WSW 1026,0 40 0 0,0
12.09.2019 08:00:00 15,5 13,3 15,6 15,2 16,4 17,4 4 2 12 6 S 1025,2 49 0 0,0
12.09.2019 07:00:00 15,2 13,0 14,2 15,2 16,5 17,4 9 5 16 9 SW 1024,7 43 0 0,0
12.09.2019 06:00:00 15,4 13,2 15,0 15,4 16,6 17,4 7 4 14 8 WSW 1024,2 47 0 0,0
12.09.2019 05:00:00 15,0 13,5 14,7 15,5 16,7 17,5 8 5 13 7 SW 1024,1 48 0 0,1
12.09.2019 04:00:00 15,0 13,3 14,7 15,6 16,9 17,5 6 3 15 8 SW 1023,9 50 0 0,0
12.09.2019 03:00:00 14,7 13,5 14,3 15,7 17,0 17,5 10 5 19 11 WSW 1023,4 43 0 0,0
12.09.2019 02:00:00 15,2 12,9 14,5 15,8 17,2 17,5 10 6 31 17 WSW 1023,0 6 0 0,0
12.09.2019 01:00:00 16,0 11,9 15,7 16,0 17,5 17,5 13 7 35 19 W 1022,7 41 0 0,0
12.09.2019 00:00:00 15,8 11,8 15,3 16,2 17,7 17,5 6 4 24 13 W 1022,3 38 0 0,0
11.09.2019 23:00:00 16,6 10,9 14,8 16,7 18,0 17,5 18 10 34 18 W 1022,2 25 0 0,1
11.09.2019 22:00:00 16,8 8,0 14,7 17,2 18,4 17,6 4 2 10 5 S 1021,5 60 0 0,0
11.09.2019 21:00:00 17,0 8,8 15,8 18,1 18,6 17,6 4 2 8 5 S 1021,2 62 0 0,0
11.09.2019 20:00:00 18,4 7,7 16,0 19,1 18,8 17,6 4 2 9 5 SW 1020,9 66 0 0,0
11.09.2019 19:00:00 21,1 6,4 19,7 20,6 18,8 17,6 7 4 27 14 SW 1020,4 64 10 0,0
11.09.2019 18:00:00 22,3 6,5 22,3 21,8 18,6 17,6 10 5 23 12 SW 1020,5 64 22 0,0
11.09.2019 17:00:00 22,2 5,8 22,7 22,5 18,2 17,7 11 6 32 18 SW 1020,5 62 27 0,0
11.09.2019 16:00:00 22,1 6,0 23,1 23,7 17,5 17,7 14 8 31 17 SSW 1020,6 52 51 0,0
11.09.2019 15:00:00 22,2 6,3 24,6 23,3 16,5 17,7 15 8 34 18 S 1021,0 49 56 0,0
11.09.2019 14:00:00 21,5 6,5 24,6 21,8 15,6 17,7 13 7 31 17 SSW 1021,6 60 50 0,0
11.09.2019 13:00:00 20,8 6,1 23,2 19,7 14,7 17,7 18 10 33 18 S 1021,9 49 60 0,0
11.09.2019 12:00:00 19,9 6,7 21,7 17,5 13,9 17,8 12 7 28 15 S 1022,5 43 60 0,0
11.09.2019 11:00:00 18,4 8,0 20,2 15,4 13,2 17,8 9 5 16 9 SSW 1022,8 57 60 0,0
11.09.2019 10:00:00 15,2 8,1 16,5 12,5 12,8 17,8 7 4 14 7 SSW 1022,5 47 60 0,0
11.09.2019 09:00:00 11,8 6,8 12,3 10,1 12,8 17,8 4 2 10 5 SSW 1022,4 41 60 0,0
11.09.2019 08:00:00 8,2 6,0 7,5 8,9 13,1 17,8 3 2 10 5 S 1022,2 23 29 0,0
11.09.2019 07:00:00 4,8 4,4 3,2 8,8 13,4 17,8 2 1 8 4 SSW 1022,0 15 0 0,0
11.09.2019 06:00:00 5,1 4,6 3,3 9,2 13,8 17,8 3 1 7 4 SW 1021,7 15 0 0,0
11.09.2019 05:00:00 5,6 5,0 3,6 9,6 14,2 17,8 3 2 6 3 SW 1021,5 19 0 0,0
11.09.2019 04:00:00 5,8 5,0 4,5 10,1 14,6 17,8 2 1 8 4 S 1021,4 27 0 0,0
11.09.2019 03:00:00 6,5 5,3 4,8 10,6 15,0 17,9 0 0 5 3 N 1021,1 33 0 0,0
11.09.2019 02:00:00 7,7 6,0 5,9 11,2 15,4 17,9 3 2 7 4 W 1020,8 40 0 0,0
11.09.2019 01:00:00 9,1 6,0 6,5 11,8 15,8 17,9 5 3 11 6 SW 1020,4 44 0 0,0
11.09.2019 00:00:00 10,5 6,3 8,6 12,5 16,2 17,9 6 3 12 6 SW 1020,0 61 0 0,0
10.09.2019 23:00:00 11,5 6,4 9,5 13,2 16,7 17,9 7 4 13 7 SW 1019,5 58 0 0,0
10.09.2019 22:00:00 11,9 6,8 9,9 14,0 17,1 18,0 5 3 10 5 SSW 1019,3 51 0 0,0
10.09.2019 21:00:00 12,9 7,3 10,8 14,9 17,5 18,0 6 4 9 5 SW 1018,8 58 0 0,0
10.09.2019 20:00:00 15,7 6,8 12,4 16,1 17,8 18,0 5 3 18 10 WSW 1018,0 63 13 0,0
10.09.2019 19:00:00 18,1 6,0 16,9 17,5 18,0 18,0 9 5 28 15 W 1017,5 70 60 0,0
10.09.2019 18:00:00 18,9 5,5 19,2 19,0 18,0 18,0 16 9 40 22 W 1017,1 50 54 0,0
10.09.2019 17:00:00 18,8 5,8 18,4 19,9 17,8 18,1 15 8 34 18 W 1016,8 31 37 0,0
10.09.2019 16:00:00 19,6 5,0 21,3 20,4 17,5 18,1 20 11 34 18 W 1016,3 62 51 0,0
10.09.2019 15:00:00 18,8 5,0 19,2 20,2 17,0 18,1 19 10 39 21 W 1016,1 64 51 0,0
10.09.2019 14:00:00 18,8 6,7 19,9 19,9 16,5 18,1 18 10 41 22 W 1016,0 59 55 0,0
10.09.2019 13:00:00 18,1 7,5 19,9 18,9 15,9 18,1 24 13 38 20 WNW 1015,7 70 60 0,0
10.09.2019 12:00:00 17,1 7,8 18,6 17,6 15,3 18,2 21 11 39 21 W 1015,7 51 59 0,0
10.09.2019 11:00:00 16,2 9,8 17,6 16,0 14,9 18,2 21 12 36 20 W 1015,3 57 59 0,0
10.09.2019 10:00:00 14,5 9,6 14,0 14,3 14,7 18,2 21 11 32 17 W 1014,8 72 60 0,0
10.09.2019 09:00:00 13,2 10,0 13,0 12,9 14,7 18,2 11 6 22 12 W 1014,3 39 60 0,0
10.09.2019 08:00:00 11,9 10,2 11,5 12,3 14,8 18,2 10 5 23 12 W 1014,0 24 23 0,0
10.09.2019 07:00:00 11,7 10,7 10,9 12,5 15,0 18,2 13 7 26 14 WSW 1013,3 17 0 0,0
10.09.2019 06:00:00 11,8 10,9 11,2 12,7 15,1 18,3 10 5 21 11 WSW 1012,9 13 0 0,0
10.09.2019 05:00:00 12,2 11,2 11,4 12,9 15,3 18,3 11 6 24 13 W 1012,5 11 0 0,0
10.09.2019 04:00:00 12,2 11,7 11,6 13,1 15,4 18,3 10 6 20 11 WSW 1012,2 5 0 0,0
10.09.2019 03:00:00 12,6 12,0 12,3 13,4 15,5 18,3 11 6 20 11 WSW 1012,2 6 0 0,0
10.09.2019 02:00:00 12,6 12,1 12,3 13,5 15,7 18,3 10 5 18 10 WSW 1012,3 9 0 0,0
10.09.2019 01:00:00 12,5 12,0 12,2 13,5 15,8 18,3 7 4 19 11 WSW 1012,1 14 0 0,0
10.09.2019 00:00:00 12,4 11,8 12,0 13,4 16,0 18,3 11 6 19 11 W 1012,0 26 0 0,0
09.09.2019 23:00:00 12,0 11,5 11,7 13,7 16,2 18,3 9 5 18 10 W 1012,2 21 0 0,3
09.09.2019 22:00:00 12,1 11,2 11,8 13,9 16,4 18,4 10 5 24 13 W 1012,3 22 0 0,9
09.09.2019 21:00:00 12,5 11,7 12,1 14,1 16,7 18,4 11 6 22 12 W 1012,0 26 0 0,6
09.09.2019 20:00:00 12,4 11,6 12,1 14,4 16,9 18,4 8 5 24 13 W 1011,5 18 0 1,2
09.09.2019 19:00:00 12,5 11,2 12,0 14,9 17,1 18,4 15 8 27 14 WNW 1011,1 14 0 0,5
09.09.2019 18:00:00 13,1 11,7 12,7 15,4 17,2 18,4 15 8 31 17 WNW 1011,0 22 0 1,2
09.09.2019 17:00:00 13,8 12,7 13,5 15,6 17,3 18,4 15 8 24 13 WNW 1010,8 11 0 1,3
09.09.2019 16:00:00 14,0 12,9 13,8 15,8 17,4 18,4 15 8 27 15 NW 1011,0 17 0 1,7
09.09.2019 15:00:00 14,0 13,0 13,8 16,1 17,4 18,4 15 8 26 14 NW 1011,1 7 0 1,1
09.09.2019 14:00:00 14,3 12,5 14,0 16,4 17,4 18,4 17 9 28 15 NW 1011,1 18 0 0,5
09.09.2019 13:00:00 14,2 12,1 13,9 16,3 17,4 18,4 16 9 27 15 NNW 1011,4 22 0 0,8
09.09.2019 12:00:00 14,2 13,4 14,4 16,2 17,4 18,4 11 6 18 10 NW 1011,8 8 0 0,5
09.09.2019 11:00:00 13,8 13,0 14,0 15,7 17,5 18,4 10 5 18 10 NW 1012,2 11 0 0,9
09.09.2019 10:00:00 13,3 12,4 13,3 15,5 17,6 18,4 9 5 15 8 NNW 1012,7 9 0 0,7

tt = temperature
td = dewpoint
tt 5cm = temperature 5cm
tt -5cm = temperature -5cm
tt -20cm = temperature -20cm
tt -100cm = temperature -100cm
ff = wind speed
fx = gusts
dd = wind direction
ppp = reduced air pressure
vv = visibility
sd = sunshine duration
rr = precipitation

Next stations